Sigfox identifier Datetime Temperature Humidity SNR
003C4047 2019-03-23 08:17:47 20.4 20 21.7
003C4047 2019-03-23 07:46:41 20.5 20 21.6
003C4047 2019-03-23 07:15:38 20.5 20 21.6
003C4047 2019-03-23 06:44:35 20.5 20 21.7
003C4047 2019-03-23 06:13:31 20.5 20 21.9
003C4047 2019-03-23 05:42:27 20.5 20 21.7
003C4047 2019-03-23 05:11:23 20.5 20 21.8
003C4047 2019-03-23 04:40:19 20.6 20 21.8
003C4047 2019-03-23 04:09:16 20.6 20 21.8
003C4047 2019-03-23 03:38:12 20.6 19 21.7
003C4047 2019-03-23 03:07:07 20.7 19 21.3
003C4047 2019-03-23 02:36:04 20.7 19 21.4
003C4047 2019-03-23 02:04:58 20.7 19 21.4
003C4047 2019-03-23 01:33:54 20.8 19 21.3
003C4047 2019-03-23 01:02:49 20.9 19 21.8
003C4047 2019-03-23 00:31:44 20.9 19 21.8
003C4047 2019-03-23 00:00:39 21 19 21.5
003C4047 2019-03-22 23:29:34 21.1 19 21.5
003C4047 2019-03-22 22:58:30 21.1 19 21.6
003C4047 2019-03-22 22:27:25 21.2 18 21.8
003C4047 2019-03-22 21:56:21 21.3 18 22
003C4047 2019-03-22 21:25:17 21.3 18 22
003C4047 2019-03-22 20:54:13 21.4 18 21.8
003C4047 2019-03-22 20:23:10 21.3 18 21.7
003C4047 2019-03-22 19:52:08 21.3 18 21.6
003C4047 2019-03-22 19:21:04 21.3 18 21.6
003C4047 2019-03-22 18:50:01 21.3 18 21.6
003C4047 2019-03-22 18:18:58 21.3 18 21.4
003C4047 2019-03-22 17:47:55 21.3 18 21.5
003C4047 2019-03-22 17:16:52 21.2 18 21.3
003C4047 2019-03-22 16:45:49 21.2 18 21.5
003C4047 2019-03-22 16:14:46 21.1 18 21.5
003C4047 2019-03-22 15:43:43 21.1 18 21.5
003C4047 2019-03-22 15:12:39 20.9 19 21.7
003C4047 2019-03-22 14:41:03 20.8 19 21.8
003C4047 2019-03-22 14:10:00 20.7 20 21.9
003C4047 2019-03-22 13:38:58 20.7 20 21.8
003C4047 2019-03-22 13:07:55 20.7 20 22
003C4047 2019-03-22 12:36:51 20.7 21 21.8
003C4047 2019-03-22 12:05:48 20.7 21 22
003C4047 2019-03-22 11:34:46 20.7 22 22
003C4047 2019-03-22 11:03:45 20.7 22 22.2
003C4047 2019-03-22 10:32:43 20.7 22 22.2
003C4047 2019-03-22 10:01:40 20.7 23 22.2
003C4047 2019-03-22 09:30:38 20.6 23 22
003C4047 2019-03-22 08:59:32 20.6 24 22.1
003C4047 2019-03-22 08:28:27 20.6 24 22.3
003C4047 2019-03-22 07:57:23 20.6 24 22.4
003C4047 2019-03-22 07:26:19 20.6 25 22.5
003C4047 2019-03-22 06:55:16 20.6 25 22.4
003C4047 2019-03-22 06:24:13 20.6 25 22.4
003C4047 2019-03-22 05:53:11 20.6 25 22.4
003C4047 2019-03-22 05:22:09 20.7 26 22.4
003C4047 2019-03-22 04:51:05 20.6 26 22.6
003C4047 2019-03-22 04:20:01 20.7 26 22.4
003C4047 2019-03-22 03:48:58 20.7 27 22.3
003C4047 2019-03-22 03:17:55 20.7 27 22.2
003C4047 2019-03-22 02:46:51 20.7 27 22.3
003C4047 2019-03-22 02:15:49 20.7 27 22.3
003C4047 2019-03-22 01:44:46 20.7 28 22.1
003C4047 2019-03-22 01:13:43 20.7 28 22.1
003C4047 2019-03-22 00:42:39 20.8 28 22
003C4047 2019-03-22 00:11:35 20.8 28 22
003C4047 2019-03-21 23:40:31 20.8 28 21.8
003C4047 2019-03-21 23:09:26 20.8 28 21.5
003C4047 2019-03-21 22:38:21 20.9 28 21.7
003C4047 2019-03-21 22:07:17 20.9 28 21.4
003C4047 2019-03-21 21:36:12 20.9 28 21.3
003C4047 2019-03-21 21:05:08 20.9 28 21.1
003C4047 2019-03-21 20:34:04 20.9 28 21.2
003C4047 2019-03-21 20:03:00 21 28 21
003C4047 2019-03-21 19:31:55 21 28 21
003C4047 2019-03-21 19:00:52 21.1 28 21
003C4047 2019-03-21 18:29:48 21.1 28 22
003C4047 2019-03-21 17:58:46 21.2 28 21.9
003C4047 2019-03-21 17:27:42 21.2 27 21.9
003C4047 2019-03-21 16:56:38 21.3 27 22.8
003C4047 2019-03-21 16:25:35 21.3 27 22.8
003C4047 2019-03-21 15:54:33 21.4 28 22.9
003C4047 2019-03-21 15:23:30 21.3 28 22.9
003C4047 2019-03-21 14:52:27 21.2 28 22.9
003C4047 2019-03-21 14:21:24 21.2 27 22.9
003C4047 2019-03-21 13:50:19 21.1 27 22.7
003C4047 2019-03-21 13:19:15 21 26 22.8
003C4047 2019-03-21 12:47:38 20.9 26 22.8
003C4047 2019-03-21 12:16:34 20.8 26 23.6
003C4047 2019-03-21 11:45:32 20.8 25 23.4
003C4047 2019-03-21 11:14:28 20.8 26 23.4
003C4047 2019-03-21 10:43:24 20.7 26 24.1
003C4047 2019-03-21 10:12:20 20.7 25 24.1
003C4047 2019-03-21 09:41:16 20.6 25 24.7
003C4047 2019-03-21 09:10:12 20.6 25 24.8
003C4047 2019-03-21 08:39:09 20.6 25 24.8
003C4047 2019-03-21 08:08:06 20.6 25 24.9
003C4047 2019-03-21 07:37:03 20.6 25 25
003C4047 2019-03-21 07:06:00 20.6 25 25
003C4047 2019-03-21 06:34:58 20.6 26 25
003C4047 2019-03-21 06:03:55 20.6 26 24.5
003C4047 2019-03-21 05:32:54 20.6 26 24.6
003C4047 2019-03-21 05:01:53 20.6 26 24.5
003C4047 2019-03-21 04:30:51 20.6 26 23.9
003C4047 2019-03-21 03:59:50 20.6 26 23.9
003C4047 2019-03-21 03:28:49 20.6 26 23.7
003C4047 2019-03-21 02:57:46 20.6 26 23.7
003C4047 2019-03-21 02:26:46 20.6 26 23.7
003C4047 2019-03-21 01:55:44 20.6 26 23.7
003C4047 2019-03-21 01:24:42 20.6 26 23.7
003C4047 2019-03-21 00:53:40 20.6 26 23.6
003C4047 2019-03-21 00:22:38 20.6 26 23.6
003C4047 2019-03-20 23:51:35 20.6 26 23.6
003C4047 2019-03-20 23:20:31 20.6 26 22.8
003C4047 2019-03-20 22:49:28 20.7 26 22.8
003C4047 2019-03-20 22:18:23 20.7 26 22.8
003C4047 2019-03-20 21:47:20 20.7 26 21.8
003C4047 2019-03-20 21:16:16 20.7 26 21.8
003C4047 2019-03-20 20:45:13 20.7 26 20.7
003C4047 2019-03-20 20:14:09 20.8 26 20.5
003C4047 2019-03-20 19:43:04 20.8 26 20.3
003C4047 2019-03-20 19:12:00 20.8 26 20.3
003C4047 2019-03-20 18:40:57 20.9 26 19.9
003C4047 2019-03-20 18:09:52 21 26 21.2
003C4047 2019-03-20 17:38:48 21 26 21.3
003C4047 2019-03-20 17:07:44 21 26 21.3
003C4047 2019-03-20 16:36:40 21.1 26 21.4
003C4047 2019-03-20 16:05:36 21.1 26 21.6
003C4047 2019-03-20 15:34:36 21.2 26 21.8
003C4047 2019-03-20 15:03:30 21.1 26 21.9
003C4047 2019-03-20 14:32:27 21.1 25 22
003C4047 2019-03-20 14:01:24 21 26 22
003C4047 2019-03-20 13:30:17 21 26 22.3
003C4047 2019-03-20 12:59:14 20.9 26 22.4
003C4047 2019-03-20 12:28:07 20.9 26 22.5
003C4047 2019-03-20 11:57:03 20.9 26 22.5
003C4047 2019-03-20 11:26:00 20.8 26 22.6
003C4047 2019-03-20 10:54:22 20.7 26 22.8
003C4047 2019-03-20 10:23:18 20.6 25 23
003C4047 2019-03-20 09:52:15 20.6 25 23.1
003C4047 2019-03-20 09:21:11 20.6 26 23
003C4047 2019-03-20 08:50:09 20.5 26 23
003C4047 2019-03-20 08:19:05 20.5 26 23.2
003C4047 2019-03-20 07:48:02 20.5 26 23.2
003C4047 2019-03-20 07:16:59 20.5 27 23.2
003C4047 2019-03-20 06:45:55 20.5 27 23.4
003C4047 2019-03-20 06:14:51 20.5 27 22.6
003C4047 2019-03-20 05:43:47 20.5 27 22.5
003C4047 2019-03-20 05:12:43 20.5 27 22.4
003C4047 2019-03-20 04:41:39 20.5 27 22.3
003C4047 2019-03-20 04:10:35 20.5 27 22.3
003C4047 2019-03-20 03:39:32 20.6 28 22.1
003C4047 2019-03-20 03:08:27 20.5 28 21.8
003C4047 2019-03-20 02:37:23 20.6 28 21.9
003C4047 2019-03-20 02:06:20 20.6 28 21.7
003C4047 2019-03-20 01:35:18 20.6 28 21.7
003C4047 2019-03-20 01:04:15 20.6 28 21.4
003C4047 2019-03-20 00:33:13 20.6 28 21.5
003C4047 2019-03-20 00:02:10 20.7 28 21.4
003C4047 2019-03-19 23:31:07 20.7 29 21.3
003C4047 2019-03-19 23:00:05 20.7 29 21.1
003C4047 2019-03-19 22:29:01 20.7 29 20.9
003C4047 2019-03-19 21:57:58 20.8 29 20.7
003C4047 2019-03-19 21:26:53 20.8 29 20.5
003C4047 2019-03-19 20:55:49 20.8 29 20.7
003C4047 2019-03-19 20:24:43 20.9 29 21.8
003C4047 2019-03-19 19:53:39 20.9 29 21.8
003C4047 2019-03-19 19:22:35 21 29 21.6
003C4047 2019-03-19 18:51:30 21.1 29 21.8
003C4047 2019-03-19 18:20:26 21.1 29 21.7
003C4047 2019-03-19 17:49:23 21.2 30 21.9
003C4047 2019-03-19 17:18:18 21.3 30 21.9
003C4047 2019-03-19 16:47:15 21.2 30 21.7
003C4047 2019-03-19 16:16:11 21.2 30 21.7
003C4047 2019-03-19 15:45:07 21.2 30 21.8
003C4047 2019-03-19 15:14:04 21.2 29 22
003C4047 2019-03-19 14:42:59 21.2 29 22
003C4047 2019-03-19 14:11:55 21.2 29 22.2
003C4047 2019-03-19 13:40:51 21.1 29 23
003C4047 2019-03-19 13:09:47 21.1 29 23.1
003C4047 2019-03-19 12:38:44 21 29 23.1
003C4047 2019-03-19 12:07:41 21 29 23.2
003C4047 2019-03-19 11:36:38 20.9 29 23.3
003C4047 2019-03-19 11:05:36 20.8 29 23.4
003C4047 2019-03-19 10:34:33 20.7 28 23.6
003C4047 2019-03-19 10:03:31 20.6 28 23.6
003C4047 2019-03-19 09:32:27 20.6 28 23.7
003C4047 2019-03-19 09:00:52 20.5 28 23.8
003C4047 2019-03-19 08:29:49 20.5 27 23.9
003C4047 2019-03-19 07:58:47 20.5 27 23.2
003C4047 2019-03-19 07:27:44 20.5 27 23.1
003C4047 2019-03-19 06:56:42 20.5 27 23
003C4047 2019-03-19 06:25:40 20.5 27 22.9
003C4047 2019-03-19 05:54:37 20.5 27 22.9
003C4047 2019-03-19 05:23:33 20.5 27 22.8
003C4047 2019-03-19 04:52:31 20.6 27 22.8
003C4047 2019-03-19 04:21:27 20.5 27 22.8
003C4047 2019-03-19 03:50:24 20.6 27 22.8
003C4047 2019-03-19 03:19:21 20.5 27 22.6
003C4047 2019-03-19 02:48:17 20.5 27 22.4
003C4047 2019-03-19 02:17:16 20.6 27 22.5
003C4047 2019-03-19 01:46:12 20.6 27 22.4
003C4047 2019-03-19 01:15:11 20.6 27 22.4
003C4047 2019-03-19 00:44:07 20.6 27 22.2
003C4047 2019-03-19 00:13:02 20.6 27 22.1
003C4047 2019-03-18 23:41:57 20.6 27 22
003C4047 2019-03-18 23:10:52 20.6 27 21.9
003C4047 2019-03-18 22:39:46 20.6 27 21.8
003C4047 2019-03-18 22:08:40 20.7 27 21.8
003C4047 2019-03-18 21:37:33 20.7 27 22
003C4047 2019-03-18 21:06:26 20.7 27 21.9
003C4047 2019-03-18 20:35:21 20.7 27 21.8
003C4047 2019-03-18 20:04:17 20.7 27 21.7
003C4047 2019-03-18 19:33:12 20.8 27 21.6
003C4047 2019-03-18 19:02:07 20.8 27 21.6
003C4047 2019-03-18 18:31:02 20.8 27 21.8
003C4047 2019-03-18 17:59:57 20.8 27 21.9
003C4047 2019-03-18 17:28:52 20.9 27 22
003C4047 2019-03-18 16:57:47 21 27 21.8
003C4047 2019-03-18 16:26:41 20.9 28 21.8
003C4047 2019-03-18 15:55:36 20.9 28 21.9
003C4047 2019-03-18 15:24:31 20.9 28 22.2
003C4047 2019-03-18 14:53:27 20.8 28 22.2
003C4047 2019-03-18 14:22:23 20.8 28 22.5
003C4047 2019-03-18 13:51:21 20.7 27 22.7
003C4047 2019-03-18 13:20:15 20.7 27 22.7
003C4047 2019-03-18 12:49:12 20.7 27 22.8
003C4047 2019-03-18 12:18:07 20.7 28 21.9
003C4047 2019-03-18 11:47:02 20.7 28 22
003C4047 2019-03-18 11:15:57 20.7 27 21.9
003C4047 2019-03-18 10:44:53 20.7 27 21.9
003C4047 2019-03-18 10:13:49 20.6 27 21.8
003C4047 2019-03-18 09:42:43 20.6 27 21.8
003C4047 2019-03-18 09:11:39 20.6 28 21.6
003C4047 2019-03-18 08:40:35 20.6 27 21.4
003C4047 2019-03-18 08:09:30 20.5 27 21.4
003C4047 2019-03-18 07:38:25 20.6 28 21.4
003C4047 2019-03-18 07:06:47 20.5 27 21.2
003C4047 2019-03-18 06:35:42 20.5 28 21.2
003C4047 2019-03-18 06:04:36 20.5 27 21.2
003C4047 2019-03-18 05:33:32 20.6 27 21.2
003C4047 2019-03-18 05:02:27 20.6 27 21
003C4047 2019-03-18 04:31:21 20.6 27 21.1
003C4047 2019-03-18 04:00:15 20.5 27 21.2
003C4047 2019-03-18 03:29:10 20.5 27 21
003C4047 2019-03-18 02:58:05 20.6 27 20.9
003C4047 2019-03-18 02:27:00 20.5 27 21
003C4047 2019-03-18 01:55:55 20.5 27 20.8
003C4047 2019-03-18 01:24:50 20.5 27 20.8
003C4047 2019-03-18 00:53:47 20.5 27 20.6
003C4047 2019-03-18 00:22:43 20.5 26 20.7
003C4047 2019-03-17 23:51:37 20.5 26 21
003C4047 2019-03-17 23:20:33 20.5 26 22
003C4047 2019-03-17 22:49:28 20.5 26 22
003C4047 2019-03-17 22:18:24 20.5 26 22.2
003C4047 2019-03-17 21:47:20 20.5 26 22.2
003C4047 2019-03-17 21:16:17 20.5 26 22.2
003C4047 2019-03-17 20:45:13 20.5 26 22.4
003C4047 2019-03-17 20:14:08 20.5 26 22.4
003C4047 2019-03-17 19:43:04 20.5 26 22.4
003C4047 2019-03-17 19:11:59 20.5 26 22.6
003C4047 2019-03-17 18:40:54 20.6 26 22.8
003C4047 2019-03-17 18:09:52 20.6 27 22.9
003C4047 2019-03-17 17:38:48 20.6 27 22.9
003C4047 2019-03-17 17:07:43 20.5 27 22.8
003C4047 2019-03-17 16:36:38 20.6 27 22.8
003C4047 2019-03-17 16:05:33 20.6 27 22.9
003C4047 2019-03-17 15:34:28 20.6 27 23
003C4047 2019-03-17 15:03:22 20.6 27 22.9
003C4047 2019-03-17 14:32:16 20.6 27 23.6
003C4047 2019-03-17 14:01:11 20.6 27 23.6
003C4047 2019-03-17 13:30:06 20.6 27 23.7
003C4047 2019-03-17 12:59:01 20.6 27 23.7
003C4047 2019-03-17 12:27:58 20.6 27 23.7
003C4047 2019-03-17 11:56:55 20.6 27 23.9
003C4047 2019-03-17 11:25:51 20.6 27 23.8
003C4047 2019-03-17 10:54:46 20.6 27 23.7
003C4047 2019-03-17 10:23:41 20.6 27 23
003C4047 2019-03-17 09:52:37 20.6 27 23.2
003C4047 2019-03-17 09:21:34 20.6 27 23.1
003C4047 2019-03-17 08:50:30 20.6 27 23.2
003C4047 2019-03-17 08:19:27 20.6 27 23.2
003C4047 2019-03-17 07:48:23 20.6 27 23.2
003C4047 2019-03-17 07:17:18 20.6 27 23.1
003C4047 2019-03-17 06:46:13 20.6 27 23.1
003C4047 2019-03-17 06:15:08 20.5 27 23
003C4047 2019-03-17 05:44:03 20.6 27 23
003C4047 2019-03-17 05:12:24 20.6 27 22.7
003C4047 2019-03-17 04:41:20 20.5 27 22.8
003C4047 2019-03-17 04:10:15 20.6 27 22.8
003C4047 2019-03-17 03:39:11 20.6 27 22.8
003C4047 2019-03-17 03:08:07 20.6 27 23.5
003C4047 2019-03-17 02:37:02 20.6 27 23.6
003C4047 2019-03-17 02:05:58 20.6 27 23
003C4047 2019-03-17 01:34:53 20.6 27 23
003C4047 2019-03-17 01:03:48 20.6 27 23
003C4047 2019-03-17 00:32:43 20.5 27 23
003C4047 2019-03-17 00:01:38 20.5 27 23.1
003C4047 2019-03-16 23:30:33 20.6 27 23.1
003C4047 2019-03-16 22:59:28 20.5 27 23
003C4047 2019-03-16 22:28:23 20.6 27 23.2
003C4047 2019-03-16 21:57:17 20.6 27 23.1
003C4047 2019-03-16 21:26:14 20.6 27 23.1
003C4047 2019-03-16 20:55:10 20.6 27 23.1
003C4047 2019-03-16 20:24:07 20.6 27 23
003C4047 2019-03-16 19:53:04 20.6 27 23
003C4047 2019-03-16 19:21:59 20.6 27 23
003C4047 2019-03-16 18:50:56 20.6 27 23
003C4047 2019-03-16 18:19:53 20.6 27 23.1
003C4047 2019-03-16 17:48:50 20.6 27 23.3
003C4047 2019-03-16 17:17:47 20.6 27 23.3
003C4047 2019-03-16 16:46:48 20.6 27 23.3
003C4047 2019-03-16 16:15:39 20.6 27 23.4
003C4047 2019-03-16 15:44:36 20.6 26 23.4
003C4047 2019-03-16 15:13:31 20.6 26 23.4
003C4047 2019-03-16 14:42:28 20.6 26 23.3
003C4047 2019-03-16 14:11:22 20.6 26 22.7
003C4047 2019-03-16 13:40:20 20.6 26 22.7
003C4047 2019-03-16 13:09:17 20.6 26 22.6
003C4047 2019-03-16 12:38:13 20.6 26 22.4
003C4047 2019-03-16 12:07:10 20.6 26 22.3
003C4047 2019-03-16 11:36:07 20.6 26 22.2
003C4047 2019-03-16 11:05:04 20.6 26 22.1
003C4047 2019-03-16 10:33:59 20.6 26 21.9
003C4047 2019-03-16 10:02:52 20.6 26 22
003C4047 2019-03-16 09:31:46 20.6 26 21.9
003C4047 2019-03-16 09:00:42 20.6 26 22
003C4047 2019-03-16 08:29:37 20.6 26 21.9
003C4047 2019-03-16 07:58:32 20.6 26 21.8
003C4047 2019-03-16 07:27:28 20.6 26 21.8
003C4047 2019-03-16 06:56:22 20.6 26 21.6
003C4047 2019-03-16 06:25:17 20.6 26 21.4
003C4047 2019-03-16 05:54:12 20.6 26 21.6
003C4047 2019-03-16 05:23:09 20.6 26 21.5
003C4047 2019-03-16 04:52:05 20.6 27 21.1
003C4047 2019-03-16 04:21:00 20.6 27 20.9
003C4047 2019-03-16 03:49:56 20.6 27 21
003C4047 2019-03-16 03:18:18 20.6 27 20.8
003C4047 2019-03-16 02:47:14 20.6 27 20.6
003C4047 2019-03-16 02:16:09 20.6 27 20.9
003C4047 2019-03-16 01:45:05 20.6 27 20.5
003C4047 2019-03-16 01:14:01 20.6 27 20.3
003C4047 2019-03-16 00:42:59 20.7 27 20.4
003C4047 2019-03-16 00:11:54 20.7 27 20.3
003C4047 2019-03-15 23:40:50 20.7 27 20.4
003C4047 2019-03-15 23:09:46 20.7 27 20.3
003C4047 2019-03-15 22:38:41 20.7 27 20.1
003C4047 2019-03-15 22:07:36 20.7 27 20.4
003C4047 2019-03-15 21:36:30 20.8 27 20.1
003C4047 2019-03-15 21:05:28 20.8 27 20.3
003C4047 2019-03-15 20:34:22 20.8 27 20.3
003C4047 2019-03-15 20:03:18 20.8 27 20.6
003C4047 2019-03-15 19:32:15 20.8 26 20.6
003C4047 2019-03-15 19:01:11 20.8 26 20.6
003C4047 2019-03-15 18:30:08 20.8 26 20.7
003C4047 2019-03-15 17:59:05 20.8 26 20.7
003C4047 2019-03-15 17:28:03 20.8 26 20.5
003C4047 2019-03-15 16:57:01 20.8 26 20.8
003C4047 2019-03-15 16:25:59 20.8 26 20.9
003C4047 2019-03-15 15:54:57 20.8 26 21.1
003C4047 2019-03-15 15:23:55 20.8 26 20.9
003C4047 2019-03-15 14:52:53 20.8 26 21
003C4047 2019-03-15 14:21:51 20.8 26 21
003C4047 2019-03-15 13:50:51 20.8 26 21.1
003C4047 2019-03-15 13:19:47 20.8 26 22
003C4047 2019-03-15 12:48:45 20.8 26 22.2
003C4047 2019-03-15 12:17:42 20.8 26 22.2
003C4047 2019-03-15 11:46:38 20.8 26 22.3
003C4047 2019-03-15 11:15:34 20.8 26 22.3
003C4047 2019-03-15 10:44:32 20.7 26 22.2
003C4047 2019-03-15 10:13:28 20.7 26 22.2
003C4047 2019-03-15 09:42:26 20.7 25 23.1
003C4047 2019-03-15 09:11:24 20.6 25 23
003C4047 2019-03-15 08:40:21 20.6 25 23.1
003C4047 2019-03-15 08:09:19 20.6 25 23
003C4047 2019-03-15 07:38:16 20.6 25 22.9
003C4047 2019-03-15 07:07:13 20.6 25 22.9
003C4047 2019-03-15 06:36:10 20.6 25 23.1
003C4047 2019-03-15 06:05:06 20.6 24 23.2
003C4047 2019-03-15 05:34:02 20.6 24 23.2
003C4047 2019-03-15 05:02:59 20.6 24 23.3
003C4047 2019-03-15 04:31:56 20.6 24 23.4
003C4047 2019-03-15 04:00:53 20.6 24 23.5
003C4047 2019-03-15 03:29:48 20.6 24 24.1
003C4047 2019-03-15 02:58:46 20.6 24 24
003C4047 2019-03-15 02:27:44 20.6 24 24.1
003C4047 2019-03-15 01:56:41 20.9 24 24.2
003C4047 2019-03-15 01:55:29 20.6 24 24.3
003C4047 2019-03-15 01:24:26 20.7 24 24.3
003C4047 2019-03-15 00:53:25 20.7 24 23.6
003C4047 2019-03-15 00:22:21 20.7 24 23.6
003C4047 2019-03-14 23:51:19 20.7 24 23.5
003C4047 2019-03-14 23:20:16 20.7 24 23.5
003C4047 2019-03-14 22:49:13 20.7 24 23.5
003C4047 2019-03-14 22:18:11 20.7 24 23.6
003C4047 2019-03-14 21:47:06 20.7 24 23.5
003C4047 2019-03-14 21:16:02 20.8 24 22.8
003C4047 2019-03-14 20:44:58 20.8 24 23.6
003C4047 2019-03-14 20:13:54 20.8 24 23.5
003C4047 2019-03-14 19:42:50 20.8 24 23.5
003C4047 2019-03-14 19:11:46 20.9 24 23.6
003C4047 2019-03-14 18:40:42 20.9 24 23.5
003C4047 2019-03-14 18:09:37 20.9 24 23.4
003C4047 2019-03-14 17:38:31 20.9 24 23.4
003C4047 2019-03-14 17:07:26 20.9 24 23.4
003C4047 2019-03-14 16:36:20 20.9 24 23.2
003C4047 2019-03-14 16:05:16 21 24 23.3
003C4047 2019-03-14 15:34:11 20.9 24 23.1
003C4047 2019-03-14 15:03:06 21 23 22.3
003C4047 2019-03-14 14:32:01 20.9 23 22.4
003C4047 2019-03-14 14:00:57 20.9 23 22.3
003C4047 2019-03-14 13:29:52 20.9 23 22.2
003C4047 2019-03-14 12:58:46 20.9 23 22
003C4047 2019-03-14 12:27:47 20.9 23 22
003C4047 2019-03-14 11:56:39 20.8 22 22
003C4047 2019-03-14 11:25:34 20.8 22 22.1
003C4047 2019-03-14 10:54:29 20.8 22 22.2
003C4047 2019-03-14 10:23:24 20.7 22 21.9
003C4047 2019-03-14 09:52:19 20.7 21 22.9
003C4047 2019-03-14 09:21:16 20.7 21 22.8
003C4047 2019-03-14 08:50:10 20.6 21 23.6
003C4047 2019-03-14 05:12:44 20.6 19 22.3
003C4047 2019-03-14 05:12:44 20.6 19 22.3
003C4047 2019-03-14 04:41:40 20.6 19 22.2
003C4047 2019-03-14 04:10:36 20.6 19 22.3
003C4047 2019-03-14 03:39:32 20.6 19 22.3
003C4047 2019-03-14 03:08:28 20.6 18 22.2
003C4047 2019-03-14 02:37:27 20.6 18 22.2
003C4047 2019-03-14 02:06:21 20.6 18 23
003C4047 2019-03-14 01:35:17 20.6 18 22.9
003C4047 2019-03-14 01:04:12 20.6 18 22.8
003C4047 2019-03-14 00:33:06 20.8 17 22.8
003C4047 2019-03-14 00:31:53 20.6 18 22.8
003C4047 2019-03-14 00:00:50 20.6 17 22.8
003C4047 2019-03-13 23:29:45 20.6 17 22.9
003C4047 2019-03-13 22:58:41 20.6 17 22.8
003C4047 2019-03-13 22:27:35 20.6 17 22.6
003C4047 2019-03-13 21:56:30 20.6 17 22.6
003C4047 2019-03-13 21:25:23 20.7 17 21.6
003C4047 2019-03-13 20:54:17 20.7 17 21.5
003C4047 2019-03-13 20:23:12 20.7 17 20.1
003C4047 2019-03-13 19:52:09 20.7 17 19.9
003C4047 2019-03-13 19:20:59 20.8 17 19.7
003C4047 2019-03-13 18:49:52 20.8 17 19.6
003C4047 2019-03-13 18:18:46 20.8 17 19.6
003C4047 2019-03-13 17:47:38 20.9 17 19.7
003C4047 2019-03-13 17:16:31 21 17 19.8
003C4047 2019-03-13 16:45:24 21 17 19.8
003C4047 2019-03-13 16:14:16 21 17 19.8
003C4047 2019-03-13 15:43:08 20.9 16 19.7
003C4047 2019-03-13 15:12:00 20.9 17 19.7
003C4047 2019-03-13 14:40:54 20.9 17 19.4
003C4047 2019-03-13 14:09:50 20.9 17 19.2
003C4047 2019-03-13 13:38:47 20.8 17 16.5
003C4047 2019-03-13 13:07:44 20.8 17 16.5
003C4047 2019-03-13 12:36:39 20.9 17 16.3
003C4047 2019-03-13 12:05:37 20.8 17 16.1
003C4047 2019-03-13 11:34:31 20.8 17 15.9
003C4047 2019-03-13 11:03:26 20.8 17 15.6
003C4047 2019-03-13 10:32:21 20.7 17 15.1
003C4047 2019-03-13 10:01:17 20.6 17 15.1
003C4047 2019-03-13 09:30:14 20.4 16 15.1
003C4047 2019-03-13 08:59:08 20.3 15 15.1
003C4047 2019-03-13 08:28:04 20.3 15 15.3
003C4047 2019-03-13 07:57:00 20.3 15 15.3
003C4047 2019-03-13 07:25:57 20.3 16 15.3
003C4047 2019-03-13 06:54:53 20.3 16 15.4
003C4047 2019-03-13 06:23:49 20.3 16 15.2
003C4047 2019-03-13 05:52:44 20.3 16 15.2
003C4047 2019-03-13 05:21:40 20.4 16 15.1
003C4047 2019-03-13 04:50:37 20.4 16 14.9
003C4047 2019-03-13 04:19:34 20.4 16 14.7
003C4047 2019-03-13 03:48:32 20.4 16 14.7
003C4047 2019-03-13 03:17:28 20.4 16 14.7
003C4047 2019-03-13 02:46:26 20.4 16 15.9
003C4047 2019-03-13 02:15:21 20.4 16 16.3
003C4047 2019-03-13 01:44:17 20.4 16 19.1
003C4047 2019-03-13 01:13:13 20.5 16 19.1
003C4047 2019-03-13 00:42:08 20.5 17 19.4
003C4047 2019-03-13 00:11:04 20.5 17 19.6
003C4047 2019-03-12 23:39:59 20.5 17 19.7
003C4047 2019-03-12 23:08:53 20.5 17 19.8
003C4047 2019-03-12 22:37:14 20.5 17 20.1
003C4047 2019-03-12 22:06:09 20.5 17 21.4
003C4047 2019-03-12 21:35:04 20.6 17 22.5
003C4047 2019-03-12 21:03:59 20.6 17 23.4
003C4047 2019-03-12 20:32:57 20.6 17 24.1
003C4047 2019-03-12 20:01:52 20.6 16 24.7
003C4047 2019-03-12 19:30:48 20.7 16 25.2
003C4047 2019-03-12 18:59:45 20.7 16 25.7
003C4047 2019-03-12 18:28:42 20.7 16 26.1
003C4047 2019-03-12 17:57:39 20.7 16 26.5
003C4047 2019-03-12 17:26:41 20.7 17 26.9
003C4047 2019-03-12 16:55:34 20.8 17 27.2
003C4047 2019-03-12 16:24:30 20.7 17 27.6
003C4047 2019-03-12 15:53:26 20.7 17 27.8
003C4047 2019-03-12 15:22:21 20.7 17 28.1
003C4047 2019-03-12 14:51:17 20.7 16 28.4
003C4047 2019-03-12 14:20:13 20.7 16 28.5
003C4047 2019-03-12 13:49:10 20.7 16 28.7
003C4047 2019-03-12 13:18:05 20.6 16 28.7
003C4047 2019-03-12 12:47:01 20.6 16 29
003C4047 2019-03-12 12:15:55 20.6 16 28.9
003C4047 2019-03-12 11:44:50 20.6 16 29.1
003C4047 2019-03-12 11:13:44 20.5 16 29.3
003C4047 2019-03-12 10:42:40 20.5 16 29.5
003C4047 2019-03-12 10:11:37 20.4 16 29.7
003C4047 2019-03-12 09:40:36 20.4 16 29.8
003C4047 2019-03-12 09:09:33 20.3 16 29.8
003C4047 2019-03-12 08:38:30 20.3 16 29.8
003C4047 2019-03-12 08:07:29 20.3 16 29.8
003C4047 2019-03-12 07:36:28 20.3 16 29.8
003C4047 2019-03-12 07:05:26 20.3 16 29.8
003C4047 2019-03-12 06:34:23 20.3 16 29.8
003C4047 2019-03-12 06:03:20 20.4 16 29.8
003C4047 2019-03-12 05:32:17 20.3 16 29.8
003C4047 2019-03-12 05:01:13 20.4 17 29.8
003C4047 2019-03-12 04:30:09 20.4 17 29.8
003C4047 2019-03-12 03:59:05 20.4 17 29.7
003C4047 2019-03-12 03:28:02 20.4 17 29.5
003C4047 2019-03-12 02:57:00 20.4 17 29.3
003C4047 2019-03-12 02:25:56 20.4 17 29.1
003C4047 2019-03-12 01:54:53 20.4 17 28.9
003C4047 2019-03-12 01:23:50 20.4 17 28.7
003C4047 2019-03-12 00:52:48 20.4 17 28.4
003C4047 2019-03-12 00:21:44 20.5 17 28.2
003C4047 2019-03-11 23:50:41 20.5 17 28
003C4047 2019-03-11 23:19:37 20.5 17 28
003C4047 2019-03-11 22:48:33 20.5 17 27.7
003C4047 2019-03-11 22:17:27 20.5 17 27.5
003C4047 2019-03-11 21:46:24 20.6 17 27.2
003C4047 2019-03-11 21:15:20 20.8 17 26.9
003C4047 2019-03-11 21:14:07 20.6 17 26.5
003C4047 2019-03-11 20:43:03 20.6 17 26.1
003C4047 2019-03-11 20:11:59 20.6 17 25.7
003C4047 2019-03-11 19:40:54 20.7 17 25.2
003C4047 2019-03-11 19:09:48 20.7 17 24.6
003C4047 2019-03-11 18:38:44 20.7 17 24
003C4047 2019-03-11 18:07:40 20.8 17 23.2
003C4047 2019-03-11 17:36:35 20.8 17 22.4
003C4047 2019-03-11 17:05:31 20.8 17 21.2
003C4047 2019-03-11 16:34:25 20.7 17 19.7
003C4047 2019-03-11 16:03:21 20.7 17 17.3
003C4047 2019-03-11 15:32:17 20.7 17 17.2
003C4047 2019-03-11 15:01:13 20.6 17 17.2
003C4047 2019-03-11 14:30:10 20.6 17 17
003C4047 2019-03-11 13:59:07 20.6 17 16.9
003C4047 2019-03-11 13:28:02 20.6 17 16.8
003C4047 2019-03-11 12:56:58 20.5 17 16.8
003C4047 2019-03-11 12:25:54 20.5 17 16.4
003C4047 2019-03-11 11:54:49 20.5 17 16
003C4047 2019-03-11 11:23:45 20.5 17 15
003C4047 2019-03-11 10:52:43 20.5 18 18.4
003C4047 2019-03-11 10:21:39 20.4 18 18.2
003C4047 2019-03-11 09:50:36 20.4 18 18.1
003C4047 2019-03-11 09:19:31 20.3 18 17.6
003C4047 2019-03-11 08:48:31 20.3 18 17.6
003C4047 2019-03-11 08:17:25 20.3 18 17.9
003C4047 2019-03-11 07:46:20 20.3 18 18
003C4047 2019-03-11 07:15:15 20.3 19 18.1
003C4047 2019-03-11 06:44:12 20.3 19 20.2
003C4047 2019-03-11 06:13:08 20.3 19 20.3
003C4047 2019-03-11 05:42:03 20.4 19 20.3
003C4047 2019-03-11 05:10:58 20.4 19 20.4
003C4047 2019-03-11 04:39:57 20.4 19 20.4
003C4047 2019-03-11 04:08:52 20.4 19 20.4
003C4047 2019-03-11 03:06:45 20.4 19 20.6
003C4047 2019-03-11 02:35:43 20.4 19 20.8
003C4047 2019-03-11 02:04:37 20.4 20 20.8
003C4047 2019-03-11 01:33:35 20.4 20 20.8
003C4047 2019-03-11 01:02:30 20.4 20 20.8
003C4047 2019-03-11 00:31:30 20.4 20 20.8
003C4047 2019-03-11 00:00:27 20.4 20 22.1
003C4047 2019-03-10 23:29:22 20.5 20 22
003C4047 2019-03-10 22:58:16 20.5 20 22.1
003C4047 2019-03-10 22:27:16 20.5 20 22.1
003C4047 2019-03-10 21:25:09 20.5 20 22.1
003C4047 2019-03-10 20:54:06 20.5 20 22.1
003C4047 2019-03-10 20:23:02 20.6 20 22.1
003C4047 2019-03-10 19:51:58 20.6 21 22.1
003C4047 2019-03-10 19:20:21 20.6 21 23
003C4047 2019-03-10 18:49:18 20.6 21 23
003C4047 2019-03-10 18:18:17 20.6 21 23
003C4047 2019-03-10 17:47:11 20.6 21 23
003C4047 2019-03-10 17:16:08 20.7 21 23
003C4047 2019-03-10 16:45:04 20.6 21 22.2
003C4047 2019-03-10 16:14:01 20.6 22 22.1
003C4047 2019-03-10 15:42:58 20.6 22 22.1
003C4047 2019-03-10 15:11:54 20.6 23 22
003C4047 2019-03-10 14:40:51 20.6 23 22.1
003C4047 2019-03-10 14:09:47 20.6 24 22.1
003C4047 2019-03-10 13:38:42 20.5 24 22
003C4047 2019-03-10 13:07:39 20.5 24 21.9
003C4047 2019-03-10 12:36:35 20.5 24 21.9
003C4047 2019-03-10 12:05:31 20.5 24 21.9
003C4047 2019-03-10 11:34:27 20.5 24 21.9
003C4047 2019-03-10 11:03:24 20.5 24 21.9
003C4047 2019-03-10 10:32:19 20.5 24 20.8
003C4047 2019-03-10 10:01:16 20.5 24 20.8
003C4047 2019-03-10 09:30:11 20.5 24 20.8
003C4047 2019-03-10 08:59:06 20.5 25 20.8
003C4047 2019-03-10 08:28:01 20.5 25 20.8
003C4047 2019-03-10 07:56:59 20.5 25 19.3
003C4047 2019-03-10 07:25:53 20.5 25 19.3
003C4047 2019-03-10 06:54:49 20.5 25 19.3
003C4047 2019-03-10 06:23:46 20.5 25 16.6
003C4047 2019-03-10 05:52:41 20.5 25 16.5
003C4047 2019-03-10 05:21:38 20.5 24 16.5
003C4047 2019-03-10 04:50:35 20.5 24 16.2
003C4047 2019-03-10 04:19:33 20.5 24 16.1
003C4047 2019-03-10 03:48:31 20.5 24 15.7
003C4047 2019-03-10 03:17:29 20.5 24 15.4
003C4047 2019-03-10 02:46:27 20.6 24 15.8
003C4047 2019-03-10 02:15:24 20.5 24 15.8
003C4047 2019-03-10 01:44:22 20.6 24 15.6
003C4047 2019-03-10 01:13:20 20.6 24 15.3
003C4047 2019-03-10 00:42:18 20.6 24 15.3
003C4047 2019-03-10 00:11:15 20.6 24 15.4
003C4047 2019-03-09 23:40:13 20.6 24 15.5
003C4047 2019-03-09 23:09:12 20.6 24 15.7
003C4047 2019-03-09 22:38:09 20.6 24 15.9
003C4047 2019-03-09 22:07:05 20.6 24 15.8
003C4047 2019-03-09 21:36:01 20.6 24 15.5
003C4047 2019-03-09 21:04:58 20.6 24 15.5
003C4047 2019-03-09 20:33:55 20.6 24 15.5
003C4047 2019-03-09 20:02:51 20.6 24 15.4
003C4047 2019-03-09 19:31:47 20.7 24 15.9
003C4047 2019-03-09 19:00:42 20.7 24 15.4
003C4047 2019-03-09 18:29:39 20.7 24 15.4
003C4047 2019-03-09 17:58:35 20.7 24 15.4
003C4047 2019-03-09 17:26:57 20.7 24 16.2
003C4047 2019-03-09 16:24:47 20.7 24 16.7
003C4047 2019-03-09 15:53:44 20.8 24 17
003C4047 2019-03-09 15:22:42 20.7 24 17
003C4047 2019-03-09 14:51:38 20.7 24 17.1
003C4047 2019-03-09 14:20:32 20.7 24 17.1
003C4047 2019-03-09 13:49:28 20.7 24 16.9
003C4047 2019-03-09 13:18:23 20.6 24 16.9
003C4047 2019-03-09 12:47:19 20.6 24 17.1
003C4047 2019-03-09 12:16:16 20.6 24 17.2
003C4047 2019-03-09 11:45:12 20.6 24 17.3
003C4047 2019-03-09 11:14:07 20.6 24 17
003C4047 2019-03-09 10:43:03 20.6 25 17.3
003C4047 2019-03-09 10:11:59 20.6 25 17.2
003C4047 2019-03-09 09:40:56 20.5 25 17.5
003C4047 2019-03-09 09:09:52 20.5 25 17.9
003C4047 2019-03-09 08:38:47 20.6 25 17.9
003C4047 2019-03-09 08:07:42 20.6 25 18
003C4047 2019-03-09 07:36:38 20.6 25 18
003C4047 2019-03-09 07:05:34 20.6 26 17.9
003C4047 2019-03-09 06:34:31 20.6 26 17.9
003C4047 2019-03-09 06:03:27 20.6 26 18
003C4047 2019-03-09 05:32:23 20.6 26 18.1
003C4047 2019-03-09 05:01:18 20.6 26 18.2
003C4047 2019-03-09 04:30:14 20.6 26 20.2
003C4047 2019-03-09 03:59:12 20.7 27 21.4
003C4047 2019-03-09 03:28:07 20.7 27 21.3
003C4047 2019-03-09 02:57:06 20.7 27 21.2
003C4047 2019-03-09 02:25:59 20.7 27 21.2
003C4047 2019-03-09 01:54:54 20.7 27 21.2
003C4047 2019-03-09 01:23:49 20.7 27 21.3
003C4047 2019-03-09 00:52:49 20.8 27 22.4
003C4047 2019-03-09 00:21:40 20.8 27 23.3
003C4047 2019-03-08 23:50:36 20.8 27 23.3
003C4047 2019-03-08 23:19:31 20.8 27 23.3
003C4047 2019-03-08 22:48:26 20.8 27 23.3
003C4047 2019-03-08 22:17:23 20.9 27 23.4
003C4047 2019-03-08 21:46:18 20.9 27 23.4
003C4047 2019-03-08 21:15:13 20.9 27 23.4
003C4047 2019-03-08 20:44:11 20.9 27 23.4
003C4047 2019-03-08 20:13:07 21 27 23.3
003C4047 2019-03-08 19:42:03 21 27 23.2
003C4047 2019-03-08 19:10:59 21 27 23.3
003C4047 2019-03-08 18:39:57 21.1 27 23.4
003C4047 2019-03-08 18:08:55 21.1 27 23.5
003C4047 2019-03-08 17:37:54 21.1 27 24.1
003C4047 2019-03-08 17:06:50 21.1 27 24.1
003C4047 2019-03-08 16:35:45 21.1 27 24.1
003C4047 2019-03-08 16:04:41 21.1 27 24.1
003C4047 2019-03-08 15:33:03 21 27 22.6
003C4047 2019-03-08 15:01:58 21 26 22.6
003C4047 2019-03-08 14:30:57 21 27 22.7
003C4047 2019-03-08 13:59:55 20.9 26 22.7
003C4047 2019-03-08 13:28:52 20.9 26 22.7
003C4047 2019-03-08 12:57:48 20.9 26 22.7
003C4047 2019-03-08 12:26:44 20.9 26 21.7
003C4047 2019-03-08 11:55:39 20.8 25 20.4
003C4047 2019-03-08 11:24:34 20.8 25 20.5
003C4047 2019-03-08 10:53:28 20.8 25 20.6
003C4047 2019-03-08 10:22:23 20.8 25 21.8
003C4047 2019-03-08 09:51:18 20.7 25 21.7
003C4047 2019-03-08 09:20:14 20.7 25 21.6
003C4047 2019-03-08 08:49:12 20.7 24 21.6
003C4047 2019-03-08 08:18:06 20.7 24 21.5
003C4047 2019-03-08 07:47:01 20.7 24 21.6
003C4047 2019-03-08 07:15:56 20.7 24 21.6
003C4047 2019-03-08 06:44:51 20.7 24 21.5
003C4047 2019-03-08 06:13:47 20.7 23 21.3
003C4047 2019-03-08 05:42:43 20.7 23 21.4
003C4047 2019-03-08 05:11:40 20.7 23 20.3
003C4047 2019-03-08 04:40:33 20.7 23 20.5
003C4047 2019-03-08 04:09:27 20.7 23 20.5
003C4047 2019-03-08 03:38:24 20.7 23 20.5
003C4047 2019-03-08 03:07:19 20.7 23 20.6
003C4047 2019-03-08 02:36:14 20.7 23 20.5
003C4047 2019-03-08 02:05:11 20.7 23 20.7
003C4047 2019-03-08 01:34:04 20.7 23 20.6
003C4047 2019-03-08 01:02:57 20.7 23 21.9
003C4047 2019-03-08 00:31:51 20.7 23 21.9
003C4047 2019-03-08 00:00:44 20.8 23 21.9
003C4047 2019-03-07 23:29:36 20.8 22 21.8
003C4047 2019-03-07 22:58:29 20.8 22 21.8
003C4047 2019-03-07 22:27:23 20.8 22 21.8
003C4047 2019-03-07 21:56:19 20.8 22 21.8
003C4047 2019-03-07 21:25:15 20.9 22 20.6
003C4047 2019-03-07 20:54:11 20.9 22 21
003C4047 2019-03-07 20:23:08 20.9 22 21
003C4047 2019-03-07 19:52:01 20.9 22 21.2
003C4047 2019-03-07 19:20:56 21 22 21.5
003C4047 2019-03-07 18:49:53 21 22 21.4
003C4047 2019-03-07 18:18:50 21.1 22 21.5
003C4047 2019-03-07 17:47:47 21.1 22 21.6
003C4047 2019-03-07 17:16:45 21.2 22 21.9
003C4047 2019-03-07 16:45:42 21.2 22 22.1
003C4047 2019-03-07 16:14:38 21.2 22 22.2
003C4047 2019-03-07 15:43:33 21.1 21 22.9
003C4047 2019-03-07 15:12:29 21.1 21 23.2
003C4047 2019-03-07 14:41:26 21.1 21 23.2
003C4047 2019-03-07 14:10:21 21 20 23.2
003C4047 2019-03-07 13:38:44 21 20 23.4
003C4047 2019-03-07 13:07:41 21 20 23.4
003C4047 2019-03-07 12:36:38 20.9 19 22.8
003C4047 2019-03-07 12:05:35 20.9 19 22.9
003C4047 2019-03-07 11:34:32 20.9 19 23
003C4047 2019-03-07 11:03:29 20.8 18 23.1
003C4047 2019-03-07 10:32:30 20.8 18 23.2
003C4047 2019-03-07 10:01:23 20.7 17 23.2
003C4047 2019-03-07 09:30:19 20.7 17 23.3
003C4047 2019-03-07 08:59:17 20.7 17 23.3
003C4047 2019-03-07 08:28:15 20.7 16 23.2
003C4047 2019-03-07 07:57:12 20.7 16 23.3
003C4047 2019-03-07 07:26:09 20.7 15 23.3
003C4047 2019-03-07 06:55:05 20.7 15 23.3
003C4047 2019-03-07 06:24:00 20.7 15 23.3
003C4047 2019-03-07 05:52:57 20.7 15 23.4
003C4047 2019-03-07 05:21:52 20.7 15 23.4
003C4047 2019-03-07 04:50:48 20.7 14 23.3
003C4047 2019-03-07 04:19:47 20.7 14 23.1
003C4047 2019-03-07 03:48:45 20.7 14 22.9
003C4047 2019-03-07 03:17:42 20.7 14 22
003C4047 2019-03-07 02:46:38 20.7 14 22
003C4047 2019-03-07 02:15:33 20.7 14 21.8
003C4047 2019-03-07 01:44:30 20.7 13 21.8
003C4047 2019-03-07 01:13:26 20.7 13 21.6
003C4047 2019-03-07 00:42:22 20.7 13 21.5
003C4047 2019-03-07 00:11:17 20.7 13 21.3
003C4047 2019-03-06 23:40:12 20.7 13 21
003C4047 2019-03-06 23:09:07 20.7 13 20.9
003C4047 2019-03-06 22:38:02 20.7 13 20.7
003C4047 2019-03-06 22:06:57 20.7 13 21.8
003C4047 2019-03-06 21:35:52 20.7 13 21.6
003C4047 2019-03-06 21:04:47 20.8 12 21.5
003C4047 2019-03-06 20:33:45 20.8 12 21.3
003C4047 2019-03-06 20:02:41 20.8 12 21.4
003C4047 2019-03-06 19:31:39 20.8 12 21.5
003C4047 2019-03-06 19:00:37 20.8 12 21.2
003C4047 2019-03-06 18:29:34 20.8 12 21.1
003C4047 2019-03-06 17:58:32 20.9 12 21.2
003C4047 2019-03-06 17:27:29 20.9 12 21.2
003C4047 2019-03-06 16:56:26 20.9 12 21.1
003C4047 2019-03-06 16:25:22 20.9 12 21
003C4047 2019-03-06 15:54:19 20.9 12 21.2
003C4047 2019-03-06 15:23:16 20.9 12 21.3
003C4047 2019-03-06 14:52:12 20.8 12 21.4
003C4047 2019-03-06 14:21:08 20.7 12 21.4
003C4047 2019-03-06 13:50:04 20.6 12 21.6
003C4047 2019-03-06 13:18:58 20.6 11 22.6
003C4047 2019-03-06 12:47:57 20.6 12 22.7
003C4047 2019-03-06 12:16:50 20.6 12 22.8
003C4047 2019-03-06 11:45:12 20.6 12 22.8
003C4047 2019-03-06 11:14:10 20.5 12 23
003C4047 2019-03-06 10:43:06 20.5 12 23.1
003C4047 2019-03-06 10:12:02 20.4 12 23.2
003C4047 2019-03-06 09:40:58 20.3 12 23.2
003C4047 2019-03-06 09:09:54 20.4 12 22.4
003C4047 2019-03-06 08:38:51 20.4 12 22.4
003C4047 2019-03-06 08:07:48 20.4 12 22.6
003C4047 2019-03-06 07:36:46 20.5 13 22.6
003C4047 2019-03-06 07:05:43 20.5 13 22.5
003C4047 2019-03-06 06:34:41 20.5 13 22.4
003C4047 2019-03-06 06:03:39 20.5 13 22.4
003C4047 2019-03-06 05:32:34 20.5 13 22.3
003C4047 2019-03-06 05:01:31 20.5 13 22.1
003C4047 2019-03-06 04:30:26 20.5 13 22
003C4047 2019-03-06 03:59:23 20.6 13 22
003C4047 2019-03-06 03:28:19 20.6 13 22
003C4047 2019-03-06 02:57:16 20.6 13 21.7
003C4047 2019-03-06 02:26:12 20.6 13 21.5
003C4047 2019-03-06 01:55:08 20.6 13 21.4
003C4047 2019-03-06 01:24:03 20.6 14 21.3
003C4047 2019-03-06 00:52:58 20.7 14 21.1
003C4047 2019-03-06 00:21:51 20.7 14 19.6
003C4047 2019-03-05 23:50:46 20.7 14 19.8
003C4047 2019-03-05 23:19:43 20.8 14 19.7
003C4047 2019-03-05 22:48:39 20.8 14 19.5
003C4047 2019-03-05 22:17:37 20.8 14 19.1
003C4047 2019-03-05 21:46:29 20.8 14 20.7
003C4047 2019-03-05 21:15:24 20.8 14 20.6
003C4047 2019-03-05 20:44:21 20.9 14 20.6
003C4047 2019-03-05 20:13:15 20.9 14 20.5
003C4047 2019-03-05 19:42:11 20.9 14 20.6
003C4047 2019-03-05 19:11:06 20.9 14 20.4
003C4047 2019-03-05 18:40:03 20.9 14 20.4
003C4047 2019-03-05 18:08:58 20.9 14 20.7
003C4047 2019-03-05 17:37:54 21 15 21
003C4047 2019-03-05 17:06:50 20.9 15 21.1
003C4047 2019-03-05 16:35:45 20.9 15 21.3
003C4047 2019-03-05 16:04:42 20.9 16 21.5
003C4047 2019-03-05 15:33:39 20.8 16 21.6
003C4047 2019-03-05 15:02:28 20.7 17 21.6
003C4047 2019-03-05 14:31:22 20.6 17 21.6
003C4047 2019-03-05 14:00:17 20.6 17 21.6
003C4047 2019-03-05 13:29:10 20.5 17 21.7
003C4047 2019-03-05 12:58:07 20.5 17 21.6
003C4047 2019-03-05 12:26:59 20.5 17 21.5
003C4047 2019-03-05 11:55:54 20.5 18 21.7
003C4047 2019-03-05 11:24:55 20.5 18 21.5
003C4047 2019-03-05 10:53:47 20.5 18 21.5
003C4047 2019-03-05 10:22:41 20.5 18 21.6
003C4047 2019-03-05 09:51:10 20.5 18 21.8
003C4047 2019-03-05 09:20:04 20.4 18 20.6
003C4047 2019-03-05 08:49:00 20.4 19 20.5
003C4047 2019-03-05 08:17:57 20.5 19 20.5
003C4047 2019-03-05 07:46:54 20.5 19 20.6
003C4047 2019-03-05 07:15:51 20.5 19 20.5
003C4047 2019-03-05 06:44:48 20.5 19 20.6
003C4047 2019-03-05 06:13:46 20.5 19 20.6
003C4047 2019-03-05 05:42:44 20.5 19 20.5
003C4047 2019-03-05 05:11:41 20.5 19 20.4
003C4047 2019-03-05 04:40:38 20.5 19 20.2
003C4047 2019-03-05 04:09:35 20.5 19 20.1
003C4047 2019-03-05 03:38:30 20.5 19 19.7
003C4047 2019-03-05 03:07:25 20.5 19 19.5
003C4047 2019-03-05 02:36:20 20.5 19 21
003C4047 2019-03-05 02:05:16 20.5 19 21.1
003C4047 2019-03-05 01:34:10 20.5 19 21.1
003C4047 2019-03-05 01:03:06 20.5 19 21.2
003C4047 2019-03-05 00:32:02 20.5 19 21.1
003C4047 2019-03-05 00:00:58 20.5 19 21.1
003C4047 2019-03-04 23:29:53 20.5 19 21
003C4047 2019-03-04 22:58:48 20.5 19 22
003C4047 2019-03-04 22:27:43 20.5 19 21.9
003C4047 2019-03-04 21:56:38 20.5 19 22
003C4047 2019-03-04 21:25:32 20.6 19 22.1
003C4047 2019-03-04 20:54:28 20.5 19 21.9
003C4047 2019-03-04 20:23:26 20.6 18 21.9
003C4047 2019-03-04 19:52:24 20.5 18 22.1
003C4047 2019-03-04 19:21:21 20.5 18 22
003C4047 2019-03-04 18:50:19 20.5 18 22.1
003C4047 2019-03-04 18:19:14 20.5 18 22.3
003C4047 2019-03-04 17:48:12 20.5 18 22.3
003C4047 2019-03-04 17:17:09 20.5 18 22.2
003C4047 2019-03-04 16:46:07 20.5 18 22
003C4047 2019-03-04 16:15:04 20.5 18 22
003C4047 2019-03-04 15:44:03 20.5 18 22
003C4047 2019-03-04 15:12:58 20.4 18 21.9
003C4047 2019-03-04 14:41:56 20.4 18 21.9
003C4047 2019-03-04 14:10:53 20.4 18 22.9
003C4047 2019-03-04 13:39:50 20.3 18 22
003C4047 2019-03-04 13:08:47 20.3 18 21.9
003C4047 2019-03-04 12:37:45 20.3 17 21.9
003C4047 2019-03-04 12:06:41 20.3 17 21.9
003C4047 2019-03-04 11:35:38 20.2 17 22
003C4047 2019-03-04 11:04:35 20.2 17 22
003C4047 2019-03-04 10:33:32 20.2 17 22.2
003C4047 2019-03-04 10:02:29 20.1 17 22.2
003C4047 2019-03-04 09:31:27 20.1 18 22.2
003C4047 2019-03-04 09:00:26 20.1 18 22.1
003C4047 2019-03-04 08:29:23 20 18 21.9
003C4047 2019-03-04 07:57:47 20 18 21.9
003C4047 2019-03-04 07:26:43 20 18 21.7
003C4047 2019-03-04 06:55:39 20.1 18 21.7
003C4047 2019-03-04 06:24:35 20.1 18 21.7
003C4047 2019-03-04 05:53:32 20.1 18 21.5
003C4047 2019-03-04 05:22:30 20.1 18 21.4
003C4047 2019-03-04 04:51:28 20.1 18 21.5
003C4047 2019-03-04 04:20:25 20.1 18 21.6
003C4047 2019-03-04 03:49:22 20.1 18 21.6
003C4047 2019-03-04 03:18:20 20.1 18 21.8
003C4047 2019-03-04 02:47:16 20.1 18 22.8
003C4047 2019-03-04 02:16:13 20.1 18 22.7
003C4047 2019-03-04 01:45:08 20.1 18 21.8
003C4047 2019-03-04 01:14:05 20.1 18 21.9
003C4047 2019-03-04 00:43:02 20.1 18 22
003C4047 2019-03-04 00:12:01 20.1 18 22
003C4047 2019-03-03 23:40:57 20.1 18 22
003C4047 2019-03-03 23:09:54 20.1 18 22.1
003C4047 2019-03-03 22:38:51 20.1 18 22.1
003C4047 2019-03-03 22:07:49 20.1 18 22.1
003C4047 2019-03-03 21:36:46 20.1 18 20.9
003C4047 2019-03-03 21:05:41 20.1 18 21
003C4047 2019-03-03 20:34:38 20.1 18 21.1
003C4047 2019-03-03 20:03:34 20.1 18 21
003C4047 2019-03-03 19:32:31 20.2 18 21
003C4047 2019-03-03 19:01:30 20.2 19 21
003C4047 2019-03-03 18:30:25 20.2 19 21.3
003C4047 2019-03-03 17:59:22 20.2 19 21.3
003C4047 2019-03-03 17:28:17 20.2 19 21.3
003C4047 2019-03-03 16:57:13 20.2 19 21.4
003C4047 2019-03-03 16:26:09 20.2 19 21.7
003C4047 2019-03-03 15:55:04 20.2 19 22.6
003C4047 2019-03-03 15:24:00 20.2 19 22.7
003C4047 2019-03-03 14:52:55 20.2 19 22.7
003C4047 2019-03-03 14:21:51 20.2 19 22.6
003C4047 2019-03-03 13:50:47 20.2 19 21.7
003C4047 2019-03-03 13:19:42 20.2 19 22
003C4047 2019-03-03 12:48:39 20.2 19 22.2
003C4047 2019-03-03 12:17:34 20.2 19 22.2
003C4047 2019-03-03 11:46:31 20.2 19 22.2
003C4047 2019-03-03 11:15:26 20.2 19 22.3
003C4047 2019-03-03 10:44:23 20.2 19 22.3
003C4047 2019-03-03 10:13:21 20.2 19 22.4
003C4047 2019-03-03 09:42:18 20.2 19 22.4
003C4047 2019-03-03 09:11:17 20.2 19 22.4
003C4047 2019-03-03 08:40:14 20.2 19 23.2
003C4047 2019-03-03 08:09:11 20.2 19 23.4
003C4047 2019-03-03 07:38:09 20.2 19 23.4
003C4047 2019-03-03 07:07:08 20.3 19 23.5
003C4047 2019-03-03 06:36:04 20.3 19 23.6
003C4047 2019-03-03 06:04:29 20.3 19 23.5
003C4047 2019-03-03 05:33:26 20.3 19 23.5
003C4047 2019-03-03 05:02:22 20.3 19 23.6
003C4047 2019-03-03 04:31:19 20.3 18 23.6
003C4047 2019-03-03 04:00:15 20.3 18 23.4
003C4047 2019-03-03 03:29:12 20.3 18 22.7
003C4047 2019-03-03 02:58:09 20.3 18 22.7
003C4047 2019-03-03 02:27:06 20.3 18 22.8
003C4047 2019-03-03 01:56:03 20.3 18 22.8
003C4047 2019-03-03 01:25:00 20.3 18 22.8
003C4047 2019-03-03 00:53:57 20.4 18 22.7
003C4047 2019-03-03 00:22:54 20.4 18 22.5
003C4047 2019-03-02 23:51:52 20.4 18 22.5
003C4047 2019-03-02 23:20:49 20.4 18 22.4
003C4047 2019-03-02 22:49:46 20.4 18 22.4
003C4047 2019-03-02 22:18:42 20.4 18 22.4
003C4047 2019-03-02 21:47:37 20.4 18 22.3
003C4047 2019-03-02 21:16:33 20.4 18 22.3
003C4047 2019-03-02 20:45:28 20.4 18 22.5
003C4047 2019-03-02 20:14:23 20.5 18 21.5
003C4047 2019-03-02 19:43:18 20.5 18 21.6
003C4047 2019-03-02 19:12:13 20.5 17 21.5
003C4047 2019-03-02 18:41:10 20.5 17 21.4
003C4047 2019-03-02 18:10:08 20.5 17 21.5
003C4047 2019-03-02 17:39:03 20.5 17 21.5
003C4047 2019-03-02 17:08:00 20.5 17 21.6
003C4047 2019-03-02 16:36:57 20.5 17 21.5
003C4047 2019-03-02 16:05:53 20.5 17 21.6
003C4047 2019-03-02 15:34:50 20.5 17 21.8
003C4047 2019-03-02 15:03:46 20.4 17 21.9
003C4047 2019-03-02 14:32:42 20.4 17 21.8
003C4047 2019-03-02 14:01:37 20.4 17 21.7
003C4047 2019-03-02 13:30:32 20.4 17 21.7
003C4047 2019-03-02 12:59:28 20.4 17 21.6
003C4047 2019-03-02 12:28:24 20.4 16 21.9
003C4047 2019-03-02 11:57:20 20.4 16 21.9
003C4047 2019-03-02 11:26:16 20.4 16 21.9
003C4047 2019-03-02 10:55:12 20.4 16 21.7
003C4047 2019-03-02 10:24:08 20.4 16 21.9
003C4047 2019-03-02 09:53:03 20.4 16 22
003C4047 2019-03-02 09:22:01 20.4 16 21.9
003C4047 2019-03-02 08:50:54 20.4 16 21.7
003C4047 2019-03-02 08:19:51 20.4 16 21.6
003C4047 2019-03-02 07:48:48 20.4 16 21.6
003C4047 2019-03-02 07:17:44 20.4 15 21.6
003C4047 2019-03-02 06:46:41 20.4 15 21.3
003C4047 2019-03-02 06:15:37 20.5 15 21.3
003C4047 2019-03-02 05:44:35 20.5 15 21.2
003C4047 2019-03-02 05:13:31 20.5 15 21.1
003C4047 2019-03-02 04:42:27 20.5 15 22.1
003C4047 2019-03-02 04:10:51 20.5 15 22
003C4047 2019-03-02 03:39:48 20.5 15 21.9
003C4047 2019-03-02 03:08:44 20.6 15 21.6
003C4047 2019-03-02 02:37:42 20.6 15 21.5
003C4047 2019-03-02 02:06:35 20.6 15 21.3
003C4047 2019-03-02 01:35:31 20.7 15 21.3
003C4047 2019-03-02 01:04:28 20.7 14 21.1
003C4047 2019-03-02 00:33:24 20.7 14 21
003C4047 2019-03-02 00:02:21 20.8 14 20.5
003C4047 2019-03-01 23:31:19 20.8 14 20.2
003C4047 2019-03-01 23:00:20 20.9 14 20.4
003C4047 2019-03-01 22:29:14 20.9 14 20.2
003C4047 2019-03-01 21:58:11 20.9 14 20
003C4047 2019-03-01 21:27:09 21 14 20.2
003C4047 2019-03-01 20:56:04 21 14 20.1
003C4047 2019-03-01 20:25:01 21 14 20
003C4047 2019-03-01 19:53:57 21 14 19.8
003C4047 2019-03-01 19:22:55 21 14 19.6
003C4047 2019-03-01 18:51:53 21 14 19.6
003C4047 2019-03-01 18:20:50 21.1 14 19.5
003C4047 2019-03-01 17:49:49 21.1 14 19.8
003C4047 2019-03-01 17:18:44 21.2 14 19.6
003C4047 2019-03-01 16:47:39 21.2 15 17.3
003C4047 2019-03-01 16:16:34 21.1 15 17.5
003C4047 2019-03-01 15:45:31 21 15 17.4
003C4047 2019-03-01 15:14:27 21 15 17.1
003C4047 2019-03-01 14:43:24 20.9 16 17.3
003C4047 2019-03-01 14:12:21 20.9 16 17.3
003C4047 2019-03-01 13:41:18 20.8 16 17.2
003C4047 2019-03-01 13:10:17 20.8 16 17.2
003C4047 2019-03-01 12:39:14 20.9 17 17.3
003C4047 2019-03-01 12:08:12 20.8 17 17.5
003C4047 2019-03-01 11:37:09 20.8 17 17.8
003C4047 2019-03-01 11:06:08 20.8 17 17.7
003C4047 2019-03-01 10:35:04 20.7 17 17.7
003C4047 2019-03-01 10:04:00 20.6 17 17.6
003C4047 2019-03-01 09:32:57 20.5 18 17.5
003C4047 2019-03-01 09:01:54 20.5 18 17.5
003C4047 2019-03-01 08:30:52 20.5 18 17.3
003C4047 2019-03-01 07:59:48 20.5 19 17.7
003C4047 2019-03-01 07:28:44 20.6 19 18.2
003C4047 2019-03-01 06:57:43 20.6 19 18.5
003C4047 2019-03-01 06:26:38 20.6 19 18.4
003C4047 2019-03-01 05:55:33 20.6 20 18.5
003C4047 2019-03-01 05:24:30 20.6 20 20.4
003C4047 2019-03-01 04:53:28 20.6 20 20.3
003C4047 2019-03-01 04:22:25 20.6 20 20.4
003C4047 2019-03-01 03:51:21 20.6 20 20.4
003C4047 2019-03-01 03:20:18 20.7 21 20.3
003C4047 2019-03-01 02:49:15 20.7 21 20.3
003C4047 2019-03-01 02:17:39 20.7 21 20.4
003C4047 2019-03-01 01:46:35 20.7 21 20.4
003C4047 2019-03-01 01:15:31 20.7 22 20.5
003C4047 2019-03-01 00:44:26 20.7 22 20.4
003C4047 2019-03-01 00:13:21 20.7 22 20.4
003C4047 2019-02-28 23:42:18 20.8 22 20.3
003C4047 2019-02-28 23:11:13 20.8 23 20.2
003C4047 2019-02-28 22:40:10 20.8 23 20.1
003C4047 2019-02-28 22:09:07 20.9 23 20.1
003C4047 2019-02-28 21:38:03 20.9 23 20.1
003C4047 2019-02-28 21:07:02 20.9 24 20.1
003C4047 2019-02-28 20:35:56 21 24 20.1
003C4047 2019-02-28 20:04:52 21 24 20.1
003C4047 2019-02-28 19:33:47 21 24 19.8
003C4047 2019-02-28 19:02:44 21.1 24 19.6
003C4047 2019-02-28 18:31:41 21.1 25 19.3
003C4047 2019-02-28 18:00:38 21.2 25 19.4
003C4047 2019-02-28 17:29:35 21.3 26 19.6
003C4047 2019-02-28 16:58:32 21.3 26 17.1
003C4047 2019-02-28 16:27:29 21.3 27 17
003C4047 2019-02-28 15:56:25 21.3 26 16.7
003C4047 2019-02-28 15:25:23 21.2 26 19.3
003C4047 2019-02-28 14:54:20 21.2 25 19.2
003C4047 2019-02-28 14:23:17 21.2 25 19.3
003C4047 2019-02-28 13:52:13 21.2 25 19.3
003C4047 2019-02-28 13:21:09 21.2 25 19.3
003C4047 2019-02-28 12:50:06 21.1 25 20.9
003C4047 2019-02-28 12:19:03 21.1 25 21
003C4047 2019-02-28 11:48:01 21 25 21
003C4047 2019-02-28 11:16:54 21 25 21.1
003C4047 2019-02-28 10:45:50 20.9 24 21.2
003C4047 2019-02-28 10:14:46 20.8 23 21.4
003C4047 2019-02-28 09:43:41 20.8 23 21.4
003C4047 2019-02-28 09:12:38 20.7 23 21.4
003C4047 2019-02-28 08:41:36 20.7 23 21.4
003C4047 2019-02-28 08:10:30 20.7 23 21.4
003C4047 2019-02-28 07:39:25 20.7 23 21.5
003C4047 2019-02-28 07:08:20 20.8 22 21.5
003C4047 2019-02-28 06:37:16 20.8 22 21.6
003C4047 2019-02-28 06:06:12 20.8 22 21.6
003C4047 2019-02-28 05:35:07 20.8 22 21.5
003C4047 2019-02-28 05:04:03 20.8 22 21.6
003C4047 2019-02-28 04:32:58 20.8 22 21.5
003C4047 2019-02-28 04:01:53 20.8 22 21.7
003C4047 2019-02-28 03:30:48 20.8 22 21.6
003C4047 2019-02-28 02:59:43 20.8 22 21.6
003C4047 2019-02-28 02:28:39 20.8 22 20.3
003C4047 2019-02-28 01:57:34 20.8 22 20.3
003C4047 2019-02-28 01:26:27 20.8 23 20.4
003C4047 2019-02-28 00:55:20 20.9 23 20.5
003C4047 2019-02-28 00:23:40 20.9 23 19.3
003C4047 2019-02-27 23:52:34 21 23 19.2
003C4047 2019-02-27 23:21:28 21 23 19.3
003C4047 2019-02-27 22:50:21 21 23 19.3
003C4047 2019-02-27 22:19:15 21 23 19.1
003C4047 2019-02-27 21:48:10 21.1 23 19.1
003C4047 2019-02-27 21:17:06 21.1 24 19.2
003C4047 2019-02-27 20:46:00 21.2 24 19.1
003C4047 2019-02-27 20:14:55 21.2 24 19.1
003C4047 2019-02-27 19:43:49 21.3 24 19.3
003C4047 2019-02-27 19:12:43 21.3 24 19.2
003C4047 2019-02-27 18:41:37 21.4 24 19.1
003C4047 2019-02-27 18:10:30 21.4 25 18.9
003C4047 2019-02-27 17:39:24 21.5 25 19
003C4047 2019-02-27 17:08:19 21.5 26 19.2
003C4047 2019-02-27 16:37:13 21.5 26 19
003C4047 2019-02-27 16:06:07 21.5 26 19
003C4047 2019-02-27 15:35:02 21.4 26 18.6
003C4047 2019-02-27 15:03:57 21.3 26 18.6
003C4047 2019-02-27 14:32:53 21.3 26 18.9
003C4047 2019-02-27 14:01:51 21.2 26 19
003C4047 2019-02-27 13:30:43 21.2 25 19.1
003C4047 2019-02-27 12:59:39 21.2 25 19
003C4047 2019-02-27 12:28:34 21.1 25 18.7
003C4047 2019-02-27 11:57:29 21.1 26 18.6
003C4047 2019-02-27 11:26:23 21.1 25 18.3
003C4047 2019-02-27 10:55:18 21 25 18.2
003C4047 2019-02-27 10:24:12 21 25 18.2
003C4047 2019-02-27 09:53:09 20.9 25 18.1
003C4047 2019-02-27 09:22:04 20.9 24 18
003C4047 2019-02-27 08:51:00 20.9 24 18.1
003C4047 2019-02-27 08:19:55 20.9 24 18.1
003C4047 2019-02-27 07:48:50 20.9 24 18.1
003C4047 2019-02-27 07:17:46 20.9 24 18.5
003C4047 2019-02-27 06:46:41 20.9 24 18.3
003C4047 2019-02-27 06:15:37 20.9 24 18.2
003C4047 2019-02-27 05:44:34 20.9 24 18.2
003C4047 2019-02-27 05:13:30 20.9 24 18.5
003C4047 2019-02-27 04:42:25 21 24 18.5
003C4047 2019-02-27 04:11:21 21 24 18.4
003C4047 2019-02-27 03:40:17 21 24 18.3
003C4047 2019-02-27 03:09:12 21.1 24 18.3
003C4047 2019-02-27 02:38:08 21.1 24 18.4
003C4047 2019-02-27 02:07:04 21.1 24 18.4
003C4047 2019-02-27 01:35:59 21.1 24 18.3
003C4047 2019-02-27 01:04:55 21.2 24 18.3
003C4047 2019-02-27 00:33:51 21.2 24 18.3
003C4047 2019-02-27 00:02:46 21.3 24 18.2
003C4047 2019-02-26 23:31:41 21.3 24 20.2
003C4047 2019-02-26 23:00:35 21.3 24 20.2
003C4047 2019-02-26 22:28:56 21.4 24 21.7
003C4047 2019-02-26 21:57:50 21.4 24 21.6
003C4047 2019-02-26 21:26:44 21.5 24 22.6
003C4047 2019-02-26 20:55:39 21.5 24 23.5
003C4047 2019-02-26 20:24:33 21.6 24 24.1
003C4047 2019-02-26 19:53:28 21.6 24 24.7
003C4047 2019-02-26 19:22:22 21.6 24 25.2
003C4047 2019-02-26 18:51:17 21.7 24 25.6
003C4047 2019-02-26 18:20:12 21.7 24 26.1
003C4047 2019-02-26 17:49:07 21.8 25 26.5
003C4047 2019-02-26 17:18:02 21.8 25 26.8
003C4047 2019-02-26 16:46:56 21.7 25 27.1
003C4047 2019-02-26 16:15:51 21.7 25 27.4
003C4047 2019-02-26 15:44:46 21.6 25 27.7
003C4047 2019-02-26 15:13:41 21.5 25 28
003C4047 2019-02-26 14:42:39 21.4 25 28.3
003C4047 2019-02-26 14:11:31 21.4 25 28.5
003C4047 2019-02-26 13:40:27 21.4 25 28.7
003C4047 2019-02-26 13:09:23 21.4 25 28.9
003C4047 2019-02-26 12:38:19 21.3 25 29.1
003C4047 2019-02-26 12:07:15 21.2 25 29.3
003C4047 2019-02-26 11:36:10 21.2 25 29.5
003C4047 2019-02-26 11:05:07 21.1 25 29.5
003C4047 2019-02-26 10:34:03 21 24 29.7
003C4047 2019-02-26 10:03:01 21 24 29.7
003C4047 2019-02-26 09:31:58 20.9 24 29.8
003C4047 2019-02-26 09:00:54 20.9 23 30
003C4047 2019-02-26 08:29:51 20.9 23 30
003C4047 2019-02-26 07:58:46 20.9 23 30
003C4047 2019-02-26 07:27:42 20.9 23 30
003C4047 2019-02-26 06:56:38 20.9 23 30
003C4047 2019-02-26 06:25:34 20.9 23 30
003C4047 2019-02-26 05:54:31 20.9 23 30
003C4047 2019-02-26 05:23:29 20.9 23 30
003C4047 2019-02-26 04:52:27 21 22 30
003C4047 2019-02-26 04:21:25 21 22 29.8
003C4047 2019-02-26 03:50:20 21 22 29.8
003C4047 2019-02-26 03:19:17 21 22 29.7
003C4047 2019-02-26 02:48:14 21 22 29.5
003C4047 2019-02-26 02:17:11 21 22 29.3
003C4047 2019-02-26 01:46:09 21.1 22 29.2
003C4047 2019-02-26 01:15:06 21.1 22 29
003C4047 2019-02-26 00:44:04 21.1 22 28.8
003C4047 2019-02-26 00:13:02 21.1 22 28.6
003C4047 2019-02-25 23:41:59 21.2 22 28.4
003C4047 2019-02-25 23:10:56 21.2 22 28.2
003C4047 2019-02-25 22:39:54 21.3 22 28
003C4047 2019-02-25 22:08:52 21.3 22 27.7
003C4047 2019-02-25 21:37:49 21.3 22 27.5
003C4047 2019-02-25 21:06:46 21.4 22 27.2
003C4047 2019-02-25 20:35:10 21.4 22 26.6
003C4047 2019-02-25 20:04:07 21.4 22 26.3
003C4047 2019-02-25 19:33:04 21.5 22 26
003C4047 2019-02-25 19:02:00 21.5 22 25.5
003C4047 2019-02-25 18:30:57 21.5 22 25.1
003C4047 2019-02-25 17:59:53 21.6 22 24.5
003C4047 2019-02-25 17:28:50 21.6 22 23.9
003C4047 2019-02-25 16:57:48 21.5 22 23.2
003C4047 2019-02-25 16:26:44 21.6 23 22.5
003C4047 2019-02-25 15:55:39 21.5 23 22.6
003C4047 2019-02-25 15:24:34 21.5 23 22.6
003C4047 2019-02-25 14:53:28 21.4 23 22.5
003C4047 2019-02-25 14:22:24 21.3 23 22.5
003C4047 2019-02-25 13:51:20 21.2 23 22.5
003C4047 2019-02-25 13:20:15 21.1 23 22.3
003C4047 2019-02-25 12:49:10 21 23 22.3
003C4047 2019-02-25 12:18:05 21 23 22.3
003C4047 2019-02-25 11:47:01 20.9 23 22.3
003C4047 2019-02-25 11:15:57 20.9 23 22.4
003C4047 2019-02-25 10:44:53 20.8 23 22.4
003C4047 2019-02-25 10:13:49 20.7 23 23.1
003C4047 2019-02-25 09:42:45 20.6 23 23.3
003C4047 2019-02-25 09:11:41 20.6 22 23.3
003C4047 2019-02-25 08:40:38 20.6 22 23.4
003C4047 2019-02-25 08:09:31 20.6 23 23.5
003C4047 2019-02-25 07:38:28 20.6 23 23.4
003C4047 2019-02-25 07:07:25 20.6 23 23.4
003C4047 2019-02-25 06:36:21 20.6 23 23.3
003C4047 2019-02-25 06:05:16 20.6 23 23.3
003C4047 2019-02-25 05:34:11 20.6 23 23.4
003C4047 2019-02-25 05:03:08 20.6 23 23.5
003C4047 2019-02-25 04:32:02 20.7 23 23.6
003C4047 2019-02-25 04:00:57 20.7 23 23.6
003C4047 2019-02-25 03:29:51 20.7 23 23.5
003C4047 2019-02-25 02:58:47 20.6 23 23.5
003C4047 2019-02-25 02:27:44 20.7 23 22.7
003C4047 2019-02-25 01:56:40 20.7 23 22.7
003C4047 2019-02-25 01:25:36 20.7 23 22.8
003C4047 2019-02-25 00:54:32 20.7 23 22.8
003C4047 2019-02-25 00:23:27 20.7 23 22.9
003C4047 2019-02-24 23:52:22 20.7 24 22.9
003C4047 2019-02-24 23:21:17 20.7 24 22.9
003C4047 2019-02-24 22:50:12 20.8 24 22.8
003C4047 2019-02-24 22:19:08 20.8 24 22.8
003C4047 2019-02-24 21:48:05 20.7 24 23.5
003C4047 2019-02-24 21:17:05 20.8 24 22.8
003C4047 2019-02-24 20:45:58 20.8 24 22.5
003C4047 2019-02-24 20:14:53 20.8 24 22.4
003C4047 2019-02-24 19:43:48 20.8 24 22.4
003C4047 2019-02-24 19:12:43 20.8 23 22.2
003C4047 2019-02-24 18:41:05 20.8 23 22.4
003C4047 2019-02-24 18:10:00 20.8 23 22.4
003C4047 2019-02-24 17:38:55 20.8 23 22.5
003C4047 2019-02-24 17:07:48 20.8 23 22.4
003C4047 2019-02-24 16:36:41 20.8 23 22.3
003C4047 2019-02-24 16:05:34 20.8 23 22.2
003C4047 2019-02-24 15:34:29 20.8 23 22.2
003C4047 2019-02-24 15:03:24 20.8 23 22.1
003C4047 2019-02-24 14:32:18 20.8 22 22
003C4047 2019-02-24 14:01:15 20.8 22 22.2
003C4047 2019-02-24 13:30:09 20.8 22 22.3
003C4047 2019-02-24 12:59:05 20.8 22 22.4
003C4047 2019-02-24 12:27:59 20.8 22 22.4
003C4047 2019-02-24 11:56:53 20.8 22 22.4
003C4047 2019-02-24 11:25:48 20.8 22 22.5
003C4047 2019-02-24 10:54:46 20.8 22 22.5
003C4047 2019-02-24 10:23:39 20.8 22 22.6
003C4047 2019-02-24 09:52:33 20.8 22 22.5
003C4047 2019-02-24 09:21:30 20.8 22 21.6
003C4047 2019-02-24 08:50:26 20.8 22 21.6
003C4047 2019-02-24 08:19:23 20.8 22 21.6
003C4047 2019-02-24 07:48:20 20.8 22 21.8
003C4047 2019-02-24 07:17:14 20.8 21 21.6
003C4047 2019-02-24 06:46:10 20.8 21 21.7
003C4047 2019-02-24 06:15:05 20.8 21 22.6
003C4047 2019-02-24 05:43:59 20.9 21 22.6
003C4047 2019-02-24 05:12:55 20.9 21 22.4
003C4047 2019-02-24 04:41:50 20.9 21 22.5
003C4047 2019-02-24 04:10:45 20.9 21 22.5
003C4047 2019-02-24 03:39:41 20.9 21 22.5
003C4047 2019-02-24 03:08:38 20.9 21 22.5
003C4047 2019-02-24 02:37:35 20.9 21 22.6
003C4047 2019-02-24 02:06:27 20.9 21 22.7
003C4047 2019-02-24 01:35:23 21 21 22.8
003C4047 2019-02-24 01:04:19 21 20 22.7
003C4047 2019-02-24 00:33:14 21 20 22.7
003C4047 2019-02-24 00:02:08 21 20 22.6
003C4047 2019-02-23 23:31:04 21 20 22.7
003C4047 2019-02-23 22:59:59 21.1 20 22.7
003C4047 2019-02-23 22:28:54 21.1 20 22.7
003C4047 2019-02-23 21:57:48 21.1 20 22.6
003C4047 2019-02-23 21:26:42 21.1 19 22.6
003C4047 2019-02-23 20:55:36 21.2 19 22.5
003C4047 2019-02-23 20:24:31 21.2 19 22.5
003C4047 2019-02-23 19:53:26 21.2 19 22.4
003C4047 2019-02-23 19:22:22 21.2 19 22.4
003C4047 2019-02-23 18:51:15 21.2 18 22.3
003C4047 2019-02-23 18:20:10 21.2 18 22.5
003C4047 2019-02-23 17:49:04 21.2 18 22.3
003C4047 2019-02-23 17:17:57 21.2 18 21.3
003C4047 2019-02-23 16:46:19 21.2 17 21.6
003C4047 2019-02-23 16:15:14 21.1 17 21.4
003C4047 2019-02-23 15:44:08 21 17 21.4
003C4047 2019-02-23 15:13:02 21 17 21.3
003C4047 2019-02-23 14:41:57 20.9 17 21.4
003C4047 2019-02-23 14:10:53 20.9 16 21.5
003C4047 2019-02-23 13:39:47 20.9 16 21.3
003C4047 2019-02-23 13:08:42 20.9 16 21.1
003C4047 2019-02-23 12:37:38 20.9 16 21.1
003C4047 2019-02-23 12:06:30 20.9 16 20.9
003C4047 2019-02-23 11:35:23 20.9 15 20.9
003C4047 2019-02-23 11:04:19 20.8 15 20.9
003C4047 2019-02-23 10:33:14 20.9 15 20.9
003C4047 2019-02-23 10:02:09 20.9 15 20.8
003C4047 2019-02-23 09:31:05 20.9 15 20.9
003C4047 2019-02-23 09:00:00 20.8 15 20.8
003C4047 2019-02-23 08:28:58 20.8 14 21
003C4047 2019-02-23 07:57:52 20.8 14 20.8
003C4047 2019-02-23 07:26:48 20.8 14 21
003C4047 2019-02-23 06:55:44 20.8 14 21
003C4047 2019-02-23 06:24:38 20.9 14 21
003C4047 2019-02-23 05:53:33 20.8 13 20.9
003C4047 2019-02-23 05:22:30 20.8 13 21.2
003C4047 2019-02-23 04:51:25 20.8 13 21.1
003C4047 2019-02-23 04:20:21 20.8 13 20.9
003C4047 2019-02-23 03:49:17 20.9 13 20.7
003C4047 2019-02-23 03:18:16 20.8 13 20.7
003C4047 2019-02-23 02:47:10 20.8 12 20.7
003C4047 2019-02-23 02:16:05 20.9 12 21
003C4047 2019-02-23 01:45:00 20.9 12 21.1
003C4047 2019-02-23 01:13:55 20.9 12 21.1
003C4047 2019-02-23 00:42:53 20.9 12 21.2
003C4047 2019-02-23 00:11:43 20.9 12 21.2
003C4047 2019-02-22 23:40:39 21 12 21.1
003C4047 2019-02-22 23:09:33 21 12 21.3
003C4047 2019-02-22 22:38:28 21 12 21.2
003C4047 2019-02-22 22:07:25 21 12 21.1
003C4047 2019-02-22 21:36:21 21.1 12 21
003C4047 2019-02-22 21:05:17 21.1 12 21
003C4047 2019-02-22 20:34:12 21.1 12 20.8
003C4047 2019-02-22 20:03:08 21.1 12 21
003C4047 2019-02-22 19:32:04 21.1 12 20.8
003C4047 2019-02-22 19:01:00 21.1 12 20.8
003C4047 2019-02-22 18:29:57 21.2 12 20.5
003C4047 2019-02-22 17:58:54 21.2 12 20.4
003C4047 2019-02-22 17:27:51 21.2 12 20.4
003C4047 2019-02-22 16:56:47 21.1 12 20.5
003C4047 2019-02-22 16:25:44 21.1 12 20.5
003C4047 2019-02-22 15:54:40 21 12 20.4
003C4047 2019-02-22 15:23:35 21.2 12 20.6
003C4047 2019-02-22 15:22:22 21 12 20.6
003C4047 2019-02-22 15:11:56 20.9 12 20.3
003C4047 2019-02-22 15:01:29 20.9 12 20.2
003C4047 2019-02-22 14:51:01 20.9 12 19.9
003C4047 2019-02-22 14:40:34 20.9 12 19.6
003C4047 2019-02-22 14:30:07 20.8 12 19.3
003C4047 2019-02-22 14:19:40 20.8 12 19.1
003C4047 2019-02-22 14:09:13 20.8 12 19.4
003C4047 2019-02-22 13:58:47 20.8 12 19.5
003C4047 2019-02-22 13:48:18 20.8 12 19.7
003C4047 2019-02-22 13:37:51 20.8 12 19.6
003C4047 2019-02-22 13:27:23 20.7 13 19.4
003C4047 2019-02-22 13:16:56 20.7 13 19.5
003C4047 2019-02-22 13:06:27 20.7 13 19.8
003C4047 2019-02-22 12:56:00 20.7 13 19.9
003C4047 2019-02-22 12:45:32 20.7 13 19.7
003C4047 2019-02-22 12:35:05 20.7 13 19.7
003C4047 2019-02-22 12:24:37 20.7 13 20
003C4047 2019-02-22 12:14:08 20.7 13 20
003C4047 2019-02-22 12:03:41 20.6 13 20.1
003C4047 2019-02-22 11:53:14 20.6 13 19.9
003C4047 2019-02-22 11:42:46 20.6 13 19.7
003C4047 2019-02-22 11:32:18 20.6 13 19.4
003C4047 2019-02-22 11:21:53 20.6 13 19.5
003C4047 2019-02-22 11:11:22 20.5 13 19.2
003C4047 2019-02-22 11:00:55 20.5 13 19.5
003C4047 2019-02-22 10:50:27 20.5 13 19.6
003C4047 2019-02-22 10:39:59 20.5 13 19.8
003C4047 2019-02-22 10:29:31 20.5 13 20.1
003C4047 2019-02-22 10:19:06 20.5 13 20.7
003C4047 2019-02-22 10:08:36 20.5 13 20.9
003C4047 2019-02-22 09:58:09 20.5 13 21
003C4047 2019-02-22 09:47:41 20.5 13 21
003C4047 2019-02-22 09:37:14 20.5 13 21
003C4047 2019-02-22 09:26:47 20.5 13 20.8
003C4047 2019-02-22 09:16:19 20.4 13 21
003C4047 2019-02-22 09:05:52 20.5 13 21
003C4047 2019-02-22 08:55:23 20.5 13 20.9
003C4047 2019-02-22 08:44:57 20.5 13 20.7
003C4047 2019-02-22 08:34:30 20.5 13 20.6
003C4047 2019-02-22 08:24:02 20.5 13 21
003C4047 2019-02-22 08:13:35 20.5 13 21
003C4047 2019-02-22 08:03:08 20.5 13 20.8
003C4047 2019-02-22 07:52:40 20.5 13 21
003C4047 2019-02-22 07:42:12 20.5 13 21
003C4047 2019-02-22 07:31:45 20.5 13 21.1
003C4047 2019-02-22 07:21:17 20.5 13 21.1
003C4047 2019-02-22 07:10:50 20.5 13 21.1
003C4047 2019-02-22 07:00:22 20.5 13 21.3
003C4047 2019-02-22 06:49:55 20.5 13 21.3
003C4047 2019-02-22 06:38:59 20.5 13 21.2
003C4047 2019-02-22 06:07:54 20.5 13 21.2
003C4047 2019-02-22 05:36:49 20.5 13 21.1
003C4047 2019-02-22 05:05:44 20.6 13 20.6
003C4047 2019-02-22 04:34:38 20.6 13 20.4
003C4047 2019-02-22 04:03:32 20.5 13 20.3
003C4047 2019-02-22 03:32:26 20.6 13 21.4
003C4047 2019-02-22 03:01:22 20.6 13 22.5
003C4047 2019-02-22 02:30:10 20.6 13 23.2
003C4047 2019-02-22 01:59:04 20.6 13 23.8
003C4047 2019-02-22 01:27:59 20.6 14 24.5
003C4047 2019-02-22 00:56:56 20.7 14 25
003C4047 2019-02-22 00:25:52 20.7 14 25
003C4047 2019-02-21 23:54:48 20.7 14 24.9
003C4047 2019-02-21 23:23:43 20.7 14 24.7
003C4047 2019-02-21 22:52:38 20.8 14 24.7
003C4047 2019-02-21 22:21:33 20.8 14 24.7
003C4047 2019-02-21 21:50:29 20.8 14 24.6
003C4047 2019-02-21 21:19:26 20.9 14 24.6
003C4047 2019-02-21 20:48:20 20.9 14 24.5
003C4047 2019-02-21 20:17:15 21 14 24.5
003C4047 2019-02-21 19:46:08 21 14 24.5
003C4047 2019-02-21 19:15:02 21 14 24.3
003C4047 2019-02-21 18:43:56 21 14 24.3
003C4047 2019-02-21 18:12:51 21.1 14 24.3
003C4047 2019-02-21 17:41:47 21.1 14 24.2
003C4047 2019-02-21 17:10:42 21 14 24.7
003C4047 2019-02-21 16:39:38 20.9 14 24.7
003C4047 2019-02-21 16:08:34 20.8 14 24.7
003C4047 2019-02-21 15:37:30 20.7 14 24.7
003C4047 2019-02-21 14:35:21 20.7 15 24.7
003C4047 2019-02-21 14:04:12 20.6 15 24
003C4047 2019-02-21 13:33:07 20.6 15 23.3
003C4047 2019-02-21 13:02:01 20.6 15 22.4
003C4047 2019-02-21 12:30:55 20.6 16 21.3
003C4047 2019-02-21 11:59:47 20.6 16 19.8
003C4047 2019-02-21 11:28:43 20.6 16 17.6
003C4047 2019-02-21 10:26:38 20.6 17 17.6
003C4047 2019-02-21 09:55:34 20.6 17 17.7
003C4047 2019-02-21 09:24:28 20.6 17 17.6
003C4047 2019-02-21 08:53:24 20.6 17 17.6
003C4047 2019-02-21 08:22:21 20.6 18 17.7
003C4047 2019-02-21 07:51:15 20.6 18 17.6
003C4047 2019-02-21 07:20:11 20.6 18 17.6
003C4047 2019-02-21 06:49:08 20.6 19 17.5
003C4047 2019-02-21 06:18:03 20.7 19 17.7
003C4047 2019-02-21 05:46:57 20.7 19 17.7
003C4047 2019-02-21 05:15:54 20.9 19 17.8
003C4047 2019-02-21 05:14:39 20.7 19 17.7
003C4047 2019-02-21 04:43:32 20.7 19 17.9
003C4047 2019-02-21 04:12:29 20.7 19 17.9
003C4047 2019-02-21 03:41:18 20.7 19 17.9
003C4047 2019-02-21 03:10:14 20.7 19 18
003C4047 2019-02-21 02:39:05 20.7 20 20.1
003C4047 2019-02-21 01:36:53 20.7 20 20.1
003C4047 2019-02-21 01:05:49 20.7 20 21.5
003C4047 2019-02-21 00:34:45 20.7 20 21.5
003C4047 2019-02-21 00:03:37 20.8 20 22.6
003C4047 2019-02-20 23:32:36 20.8 20 23.5
003C4047 2019-02-20 22:30:28 20.8 21 23.5
003C4047 2019-02-20 21:59:27 20.8 21 23.5
003C4047 2019-02-20 21:28:24 20.8 21 23.4
003C4047 2019-02-20 20:57:18 20.8 21 23.4
003C4047 2019-02-20 20:26:16 20.8 21 23.4
003C4047 2019-02-20 19:55:11 20.8 21 23.4
003C4047 2019-02-20 19:24:07 20.8 21 23.4
003C4047 2019-02-20 18:53:01 20.8 21 23.4
003C4047 2019-02-20 17:50:59 20.8 22 23.4
003C4047 2019-02-20 17:19:54 20.8 22 23.4
003C4047 2019-02-20 16:48:51 20.8 23 23.4
003C4047 2019-02-20 16:17:48 20.8 23 23.4
003C4047 2019-02-20 15:46:47 20.8 23 23.3
003C4047 2019-02-20 15:15:43 20.8 23 23.4
003C4047 2019-02-20 14:13:33 20.8 24 23.3